Погода в Грудках

Россия / Костромская область     57°49′24″N   41°33′04″E
темп.,
°C
ветер,
м/с
пор.,
м/с
влажн.,
%
обл.,
%
осадки,
мм/ч
давл.,
гПа
погр.,
м
6 марта, сб
сб600:00−15з229530 0.0 101223
03:00−14зюз379665 0.3 1014197
06:00−16з239899 0.1 101357
09:00−14зсз249594 0.1 1014144
12:00−10зсз248760 0.0 1014509
15:00−9з358678 0.1 1013802
18:00−12зюз2394100 0.1 101336
21:00−15юз239459 0.1 101226
7 марта, вс
вс700:00−15ююз349725 0.0 101084
03:00−14ю4109423 0.0 1007241
06:00−12ю6139086 0.0 1002437
09:00−9ю6139293 0.6 998687
12:00−7ю61293100 1.1 994793
15:00−5ю61193100 2.3 990839
18:00−5ююв4995100 1.6 988604
21:00−6зсз61194100 3.1 989696
8 марта, пн
пн800:00−8з61194100 1.7 989687
03:00−10з51193100 2.1 990495
06:00−12з3795100 0.2 990271
09:00−11зсз2495100 0.4 992237
12:00−7с4690100 0.3 993691
15:00−8с5889100 0.5 996753
18:00−11ссз4993100 0.2 999664
21:00−12ссз41092100 0.4 1002651
9 марта, вт
вт900:00−14ссз41093100 0.1 1005503
03:00−17ссз31095100 0.1 1007353
06:00−19ссз3897100 0.0 1010314
09:00−21ссз379492 0.0 1012304
12:00−17сз369079 0.0 1013426
15:00−15сз368890 0.1 1014610
18:00−18сз2696100 0.1 1015155
21:00−22ссз259899 0.1 1018117
10 марта, ср
ср1000:00−25с239963 0.0 101936
03:00−27с239832 0.0 102037
06:00−29с23980 0.0 102171
09:00−26ссв25950 0.0 1023223
12:00−20с248941 0.0 1023409
15:00−18ссз348869 0.0 1023502
18:00−21ссз239592 0.0 102425
21:00−24вюв129551 0.0 101920